Location: Byszew
(52.1813°N, 19.2693°E)
Time: 19:55:58
(UTC+00:00)

AIST 2D - Pass Details

Date: 04 July 2022
Orbit: 433 x 444 km, 97.0° (Epoch: 07 August)

Event Time Altitude Azimuth Distance (km) Brightness Sun altitude
Rises 20:21:31 0° 14° (NNE) 2,430 ? -8.5°
Reaches altitude 10° 20:23:33 10° 17° (NNE) 1,557 ? -8.7°
Maximum altitude 20:26:52 73° 102° (ESE) 464 ? -9.0°
Drops below altitude 10° 20:30:11 10° 188° (S) 1,548 ? -9.2°
Enters shadow 20:30:41 - 189° (S) 1,761 ? -9.3°
